OCN1DB EDDM-BIKF

Flight info

Callsign OCN1DB
Flight time N/A
Altitude 34000
Route INPUD3Q INPUD Y102 ALIBU DCT MASEK DCT MAPOX DCT LONAM DCT DEVBI DCT RATSU/M076F340 DCT ALDAN DCT ASRUN ASRUN3K
Aircraft A320/M-SDE2E3FGIJ1LORWXYZ/HB1

Departure

Time N/A
Airport Munich Airport (EDDM)

Arrival

Time 2026-04-29 11:20
Airport Keflavik International Airport (BIKF)
Time Latitude Longitude Altitude Speed Heading
2026-04-29 08:45 53.56200 4.48909 34454 ft 458 kts 317°
2026-04-29 08:46 53.60363 4.40794 34460 ft 458 kts 317°
2026-04-29 08:46 53.64512 4.32663 34455 ft 458 kts 316°
2026-04-29 08:47 53.68665 4.24514 34455 ft 458 kts 316°
2026-04-29 08:47 53.72814 4.16351 34443 ft 458 kts 316°
2026-04-29 08:48 53.76954 4.08157 34448 ft 459 kts 316°
2026-04-29 08:48 53.81095 3.99941 34463 ft 459 kts 316°
2026-04-29 08:49 53.85446 3.92128 34464 ft 451 kts 326°
2026-04-29 08:49 53.90274 3.85342 34471 ft 451 kts 326°
2026-04-29 08:50 53.95095 3.78520 34461 ft 451 kts 326°
2026-04-29 08:50 53.99905 3.71656 34479 ft 452 kts 326°
2026-04-29 08:51 54.04714 3.64794 34464 ft 452 kts 326°
2026-04-29 08:51 54.09530 3.57908 34472 ft 452 kts 326°
2026-04-29 08:52 54.14343 3.50998 34477 ft 452 kts 326°
2026-04-29 08:52 54.19152 3.44058 34478 ft 453 kts 326°
2026-04-29 08:53 54.23959 3.37108 34475 ft 453 kts 325°
2026-04-29 08:53 54.28763 3.30146 34483 ft 452 kts 325°
2026-04-29 08:54 54.33563 3.23171 34493 ft 452 kts 325°
2026-04-29 08:54 54.38362 3.16185 34486 ft 453 kts 325°
2026-04-29 08:55 54.43158 3.09173 34491 ft 453 kts 325°
2026-04-29 08:55 54.47947 3.02144 34490 ft 453 kts 324°
2026-04-29 08:56 54.52735 2.95089 34501 ft 453 kts 324°
2026-04-29 08:56 54.57521 2.88027 34500 ft 453 kts 324°
2026-04-29 08:57 54.62296 2.80936 34503 ft 453 kts 324°
2026-04-29 08:57 54.67069 2.73834 34506 ft 453 kts 324°
2026-04-29 08:58 54.71838 2.66720 34493 ft 453 kts 324°
2026-04-29 08:58 54.76602 2.59595 34500 ft 452 kts 324°
2026-04-29 08:59 54.81357 2.52452 34498 ft 452 kts 324°
2026-04-29 08:59 54.86103 2.45310 34519 ft 452 kts 324°
2026-04-29 09:00 54.90851 2.38147 34519 ft 452 kts 324°
2026-04-29 09:00 54.95594 2.30970 34511 ft 452 kts 324°
2026-04-29 09:01 54.99532 2.24980 34523 ft 452 kts 323°
2026-04-29 09:01 55.04257 2.17761 34516 ft 451 kts 323°
2026-04-29 09:02 55.08977 2.10530 34518 ft 451 kts 323°
2026-04-29 09:02 55.13689 2.03293 34519 ft 451 kts 323°
2026-04-29 09:03 55.18435 1.95985 34519 ft 451 kts 323°
2026-04-29 09:03 55.23117 1.88762 34521 ft 452 kts 323°
2026-04-29 09:04 55.27823 1.81470 34518 ft 451 kts 323°
2026-04-29 09:04 55.32519 1.74169 34526 ft 451 kts 322°
2026-04-29 09:05 55.37206 1.66857 34532 ft 450 kts 322°
2026-04-29 09:05 55.41886 1.59531 34517 ft 450 kts 322°
2026-04-29 09:06 55.46556 1.52179 34525 ft 450 kts 322°
2026-04-29 09:06 55.51228 1.44825 34524 ft 450 kts 322°
2026-04-29 09:07 55.55887 1.37464 34528 ft 450 kts 322°
2026-04-29 09:07 55.60541 1.30084 34532 ft 449 kts 322°
2026-04-29 09:08 55.65188 1.22694 34532 ft 449 kts 322°
2026-04-29 09:08 55.69826 1.15284 34534 ft 449 kts 322°
2026-04-29 09:09 55.74456 1.07853 34523 ft 449 kts 322°
2026-04-29 09:09 55.79088 1.00411 34517 ft 449 kts 321°
2026-04-29 09:10 55.83711 0.92953 34527 ft 448 kts 321°
2026-04-29 09:10 55.88324 0.85488 34533 ft 448 kts 321°
2026-04-29 09:11 55.92926 0.78020 34535 ft 448 kts 321°
2026-04-29 09:11 55.97524 0.70523 34535 ft 448 kts 321°
2026-04-29 09:12 56.02119 0.63013 34537 ft 448 kts 321°
2026-04-29 09:12 56.06708 0.55485 34530 ft 448 kts 321°
2026-04-29 09:13 56.11292 0.47934 34530 ft 448 kts 321°
2026-04-29 09:13 56.15872 0.40357 34531 ft 448 kts 321°
2026-04-29 09:14 56.20451 0.32763 34532 ft 448 kts 321°
2026-04-29 09:14 56.25031 0.25157 34533 ft 448 kts 321°
2026-04-29 09:15 56.29602 0.17520 34531 ft 448 kts 320°
2026-04-29 09:15 56.34169 0.09886 34536 ft 448 kts 320°
2026-04-29 09:16 56.38730 0.02236 34539 ft 447 kts 320°
2026-04-29 09:16 56.43283 -0.05433 34527 ft 448 kts 320°
2026-04-29 09:17 56.47832 -0.13130 34535 ft 448 kts 320°
2026-04-29 09:17 56.52375 -0.20851 34537 ft 448 kts 320°
2026-04-29 09:18 56.56914 -0.28584 34533 ft 448 kts 320°
2026-04-29 09:18 56.61449 -0.36324 34542 ft 447 kts 319°
2026-04-29 09:19 56.65967 -0.44085 34552 ft 447 kts 319°
2026-04-29 09:19 56.70472 -0.51842 34551 ft 446 kts 319°
2026-04-29 09:20 56.74976 -0.59610 34541 ft 446 kts 319°
2026-04-29 09:20 56.79468 -0.67398 34537 ft 445 kts 319°
2026-04-29 09:21 56.83954 -0.75197 34533 ft 445 kts 319°
2026-04-29 09:21 56.88427 -0.83004 34538 ft 444 kts 319°
2026-04-29 09:22 56.92892 -0.90817 34539 ft 444 kts 319°
2026-04-29 09:22 56.97350 -0.98642 34536 ft 444 kts 319°
2026-04-29 09:23 57.01802 -1.06492 34541 ft 444 kts 318°
2026-04-29 09:23 57.06247 -1.14360 34533 ft 444 kts 318°
2026-04-29 09:24 57.10678 -1.22241 34517 ft 443 kts 317°
2026-04-29 09:24 57.15105 -1.30132 34526 ft 442 kts 317°
2026-04-29 09:25 57.19523 -1.38023 34527 ft 442 kts 317°
2026-04-29 09:25 57.23926 -1.45944 34530 ft 442 kts 317°
2026-04-29 09:26 57.28330 -1.53870 34529 ft 442 kts 317°
2026-04-29 09:26 57.32728 -1.61815 34530 ft 442 kts 317°
2026-04-29 09:27 57.37117 -1.69788 34518 ft 442 kts 317°
2026-04-29 09:27 57.41492 -1.77756 34526 ft 441 kts 317°
2026-04-29 09:28 57.45864 -1.85720 34523 ft 440 kts 317°
2026-04-29 09:28 57.50217 -1.93695 34518 ft 439 kts 317°
2026-04-29 09:29 57.54556 -2.01675 34522 ft 438 kts 316°
2026-04-29 09:29 57.61042 -2.13687 34509 ft 438 kts 316°
2026-04-29 09:30 57.65360 -2.21714 34495 ft 438 kts 315°
2026-04-29 09:30 57.69672 -2.29741 34498 ft 437 kts 316°
2026-04-29 09:31 57.73974 -2.37780 34499 ft 437 kts 316°
2026-04-29 09:31 57.78261 -2.45817 34489 ft 436 kts 315°
2026-04-29 09:32 57.82583 -2.53942 34477 ft 438 kts 315°
2026-04-29 09:32 57.86852 -2.62000 34478 ft 438 kts 315°
2026-04-29 09:33 57.91146 -2.70146 34474 ft 439 kts 314°
2026-04-29 09:33 57.95430 -2.78312 34484 ft 438 kts 314°
2026-04-29 09:34 57.99708 -2.86481 34485 ft 437 kts 314°
2026-04-29 09:34 58.04006 -2.94704 34488 ft 437 kts 314°
2026-04-29 09:35 58.08232 -3.02829 34485 ft 437 kts 314°
2026-04-29 09:35 58.12481 -3.11043 34479 ft 437 kts 314°
2026-04-29 09:36 58.16728 -3.19282 34477 ft 437 kts 313°
2026-04-29 09:36 58.20975 -3.27534 34474 ft 437 kts 313°
2026-04-29 09:37 58.25210 -3.35815 34480 ft 437 kts 313°
2026-04-29 09:37 58.29443 -3.44108 34482 ft 437 kts 313°
2026-04-29 09:38 58.33672 -3.52413 34471 ft 437 kts 313°
2026-04-29 09:38 58.37887 -3.60731 34476 ft 437 kts 313°
2026-04-29 09:39 58.42126 -3.69140 34473 ft 437 kts 313°
2026-04-29 09:39 58.45621 -3.76093 34483 ft 436 kts 313°
2026-04-29 09:40 58.49817 -3.84459 34480 ft 436 kts 313°
2026-04-29 09:40 58.54009 -3.92841 34475 ft 436 kts 312°
2026-04-29 09:41 58.58188 -4.01252 34472 ft 436 kts 312°
2026-04-29 09:41 58.62364 -4.09672 34469 ft 435 kts 312°
2026-04-29 09:42 58.66534 -4.18094 34467 ft 436 kts 312°
2026-04-29 09:42 58.70700 -4.26554 34465 ft 436 kts 312°
2026-04-29 09:43 58.74857 -4.35036 34468 ft 435 kts 312°
2026-04-29 09:43 58.79006 -4.43536 34469 ft 435 kts 311°
2026-04-29 09:44 58.83154 -4.52044 34459 ft 435 kts 311°
2026-04-29 09:44 58.87297 -4.60590 34461 ft 436 kts 311°
2026-04-29 09:45 58.91430 -4.69177 34465 ft 436 kts 311°
2026-04-29 09:45 58.95560 -4.77776 34486 ft 436 kts 311°
2026-04-29 09:46 58.99680 -4.86367 34477 ft 435 kts 311°
2026-04-29 09:46 59.03796 -4.94968 34480 ft 435 kts 311°
2026-04-29 09:47 59.07903 -5.03584 34473 ft 434 kts 311°
2026-04-29 09:47 59.12001 -5.12219 34479 ft 434 kts 310°
2026-04-29 09:48 59.16087 -5.20884 34465 ft 434 kts 310°
2026-04-29 09:48 59.20170 -5.29573 34463 ft 434 kts 310°
2026-04-29 09:49 59.24253 -5.38277 34467 ft 435 kts 310°
2026-04-29 09:49 59.28332 -5.47002 34461 ft 435 kts 310°
2026-04-29 09:50 59.32406 -5.55759 34464 ft 435 kts 310°
2026-04-29 09:50 59.36471 -5.64527 34466 ft 435 kts 310°
2026-04-29 09:51 59.40533 -5.73327 34463 ft 435 kts 310°
2026-04-29 09:51 59.44589 -5.82140 34461 ft 435 kts 310°
2026-04-29 09:52 59.48637 -5.90979 34466 ft 435 kts 310°
2026-04-29 09:52 59.52686 -5.99852 34458 ft 436 kts 309°
2026-04-29 09:53 59.56730 -6.08761 34455 ft 436 kts 309°
2026-04-29 09:53 59.60772 -6.17689 34452 ft 436 kts 309°
2026-04-29 09:54 59.64809 -6.26640 34451 ft 436 kts 309°
2026-04-29 09:54 59.68834 -6.35620 34445 ft 436 kts 309°
2026-04-29 09:55 59.72853 -6.44600 34456 ft 436 kts 309°
2026-04-29 09:55 59.76873 -6.53612 34450 ft 436 kts 309°
2026-04-29 09:56 59.80886 -6.62661 34449 ft 437 kts 308°
2026-04-29 09:56 59.84893 -6.71742 34438 ft 437 kts 308°
2026-04-29 09:57 59.88910 -6.80838 34435 ft 438 kts 308°
2026-04-29 09:57 59.92918 -6.89976 34436 ft 438 kts 308°
2026-04-29 09:58 59.96921 -6.99145 34439 ft 438 kts 308°
2026-04-29 09:58 60.00923 -7.08339 34451 ft 438 kts 308°
2026-04-29 09:59 60.04908 -7.17558 34445 ft 438 kts 308°
2026-04-29 09:59 60.08893 -7.26804 34434 ft 438 kts 308°
2026-04-29 10:00 60.12881 -7.36055 34432 ft 438 kts 308°
2026-04-29 10:00 60.16860 -7.45325 34431 ft 438 kts 308°
2026-04-29 10:01 60.20824 -7.54628 34418 ft 438 kts 307°
2026-04-29 10:01 60.24779 -7.63948 34429 ft 438 kts 307°
2026-04-29 10:02 60.28731 -7.73280 34422 ft 438 kts 307°
2026-04-29 10:02 60.32672 -7.82638 34412 ft 438 kts 307°
2026-04-29 10:03 60.36607 -7.92018 34410 ft 438 kts 307°
2026-04-29 10:03 60.40533 -8.01407 34401 ft 438 kts 307°
2026-04-29 10:04 60.44457 -8.10834 34401 ft 438 kts 307°
2026-04-29 10:04 60.48375 -8.20293 34403 ft 438 kts 307°
2026-04-29 10:05 60.52285 -8.29790 34414 ft 439 kts 306°
2026-04-29 10:05 60.56204 -8.39300 34405 ft 439 kts 306°
2026-04-29 10:06 60.60086 -8.48768 34380 ft 439 kts 306°
2026-04-29 10:06 60.63981 -8.58334 34382 ft 439 kts 306°
2026-04-29 10:07 60.67863 -8.67932 34382 ft 439 kts 306°
2026-04-29 10:07 60.71606 -8.77822 34360 ft 435 kts 297°
2026-04-29 10:08 60.74319 -8.88764 34362 ft 432 kts 292°
2026-04-29 10:08 60.76929 -8.99826 34394 ft 432 kts 291°
2026-04-29 10:09 60.79517 -9.10814 34375 ft 431 kts 291°
2026-04-29 10:09 60.82128 -9.21954 34368 ft 431 kts 291°
2026-04-29 10:10 60.84692 -9.32956 34378 ft 430 kts 291°
2026-04-29 10:10 60.87262 -9.44047 34362 ft 430 kts 291°
2026-04-29 10:11 60.89816 -9.55161 34352 ft 430 kts 291°
2026-04-29 10:11 60.92375 -9.66346 34367 ft 430 kts 291°
2026-04-29 10:12 60.94912 -9.77483 34369 ft 430 kts 290°
2026-04-29 10:12 60.97421 -9.88548 34393 ft 429 kts 290°
2026-04-29 10:13 60.99926 -9.99688 34379 ft 428 kts 290°
2026-04-29 10:13 61.02689 -10.10574 34366 ft 429 kts 294°
2026-04-29 10:14 61.05729 -10.21274 34360 ft 429 kts 295°
2026-04-29 10:14 61.08727 -10.31916 34341 ft 428 kts 294°
2026-04-29 10:15 61.11631 -10.42637 34331 ft 427 kts 294°
2026-04-29 10:15 61.14497 -10.53393 34349 ft 426 kts 293°
2026-04-29 10:16 61.16879 -10.62317 34332 ft 426 kts 293°
2026-04-29 10:16 61.20222 -10.74877 34324 ft 426 kts 293°
2026-04-29 10:17 61.23073 -10.85642 34320 ft 425 kts 293°
2026-04-29 10:17 61.25910 -10.96423 34288 ft 425 kts 292°
2026-04-29 10:18 61.28726 -11.07135 34294 ft 425 kts 292°
2026-04-29 10:18 61.31554 -11.17934 34291 ft 425 kts 292°
2026-04-29 10:19 61.34364 -11.28759 34300 ft 425 kts 292°
2026-04-29 10:19 61.37163 -11.39598 34303 ft 425 kts 292°
2026-04-29 10:20 61.39505 -11.48674 34303 ft 424 kts 292°
2026-04-29 10:20 61.42294 -11.59521 34290 ft 424 kts 292°
2026-04-29 10:21 61.45506 -11.72129 34304 ft 422 kts 291°
2026-04-29 10:21 61.47805 -11.81213 34301 ft 421 kts 291°
2026-04-29 10:22 61.50534 -11.92048 34293 ft 420 kts 291°
2026-04-29 10:22 61.53251 -12.02890 34274 ft 420 kts 291°
2026-04-29 10:23 61.55971 -12.13740 34301 ft 420 kts 290°
2026-04-29 10:23 61.58678 -12.24586 34281 ft 419 kts 290°
2026-04-29 10:24 61.61368 -12.35453 34259 ft 419 kts 290°
2026-04-29 10:24 61.64043 -12.46337 34249 ft 419 kts 290°
2026-04-29 10:25 61.66711 -12.57233 34274 ft 419 kts 289°
2026-04-29 10:25 61.69375 -12.68134 34265 ft 418 kts 289°
2026-04-29 10:26 61.72024 -12.79038 34246 ft 418 kts 289°
2026-04-29 10:26 61.74660 -12.89955 34241 ft 417 kts 289°
2026-04-29 10:27 61.78595 -13.06333 34242 ft 417 kts 288°
2026-04-29 10:28 61.81206 -13.17275 34229 ft 417 kts 288°
2026-04-29 10:28 61.83795 -13.28235 34218 ft 416 kts 288°
2026-04-29 10:29 61.86382 -13.39205 34205 ft 416 kts 288°
2026-04-29 10:29 61.88967 -13.50181 34225 ft 416 kts 287°
2026-04-29 10:30 61.91539 -13.61162 34201 ft 415 kts 287°
2026-04-29 10:30 61.94098 -13.72158 34194 ft 415 kts 287°
2026-04-29 10:31 61.96640 -13.83172 34211 ft 415 kts 286°
2026-04-29 10:31 61.99177 -13.94189 34180 ft 415 kts 287°
2026-04-29 10:32 62.01709 -14.05232 34170 ft 415 kts 286°
2026-04-29 10:32 62.04227 -14.16295 34157 ft 415 kts 286°
2026-04-29 10:33 62.06611 -14.26796 34149 ft 415 kts 286°
2026-04-29 10:33 62.08942 -14.37096 34192 ft 414 kts 285°
2026-04-29 10:34 62.11416 -14.48145 34166 ft 412 kts 285°
2026-04-29 10:34 62.13879 -14.59190 34154 ft 411 kts 285°
2026-04-29 10:35 62.16333 -14.70240 34155 ft 411 kts 285°
2026-04-29 10:35 62.18780 -14.81301 34145 ft 411 kts 285°
2026-04-29 10:36 62.21216 -14.92376 34127 ft 411 kts 285°
2026-04-29 10:36 62.23642 -15.03468 34127 ft 411 kts 285°
2026-04-29 10:37 62.26060 -15.14583 34122 ft 411 kts 284°
2026-04-29 10:37 62.28468 -15.25695 34114 ft 410 kts 284°
2026-04-29 10:38 62.30847 -15.36798 34126 ft 408 kts 284°
2026-04-29 10:38 62.33219 -15.47895 34115 ft 408 kts 284°
2026-04-29 10:39 62.35591 -15.58994 34105 ft 408 kts 283°
2026-04-29 10:39 62.37950 -15.70108 34088 ft 408 kts 283°
2026-04-29 10:40 62.40292 -15.81234 34088 ft 407 kts 283°
2026-04-29 10:40 62.42624 -15.92373 34086 ft 407 kts 283°
2026-04-29 10:41 62.44943 -16.03528 34080 ft 407 kts 283°
2026-04-29 10:41 62.47266 -16.14689 34069 ft 407 kts 283°
2026-04-29 10:42 62.49571 -16.25862 34130 ft 407 kts 282°
2026-04-29 10:42 62.51851 -16.37000 34082 ft 404 kts 282°
2026-04-29 10:43 62.54123 -16.48151 34096 ft 405 kts 281°
2026-04-29 10:43 62.56388 -16.59320 34078 ft 405 kts 281°
2026-04-29 10:44 62.58650 -16.70490 34080 ft 404 kts 281°
2026-04-29 10:44 62.60898 -16.81670 34066 ft 404 kts 281°
2026-04-29 10:45 62.63128 -16.92866 34064 ft 404 kts 281°
2026-04-29 10:45 62.65353 -17.04073 34063 ft 404 kts 281°
2026-04-29 10:46 62.67549 -17.15224 34061 ft 404 kts 281°
2026-04-29 10:46 62.69777 -17.26534 34071 ft 403 kts 279°
2026-04-29 10:47 62.71964 -17.37714 34086 ft 401 kts 279°
2026-04-29 10:47 62.74133 -17.48912 34072 ft 401 kts 279°
2026-04-29 10:48 62.76291 -17.60122 34059 ft 401 kts 279°
2026-04-29 10:48 62.78446 -17.71341 34054 ft 400 kts 279°
2026-04-29 10:49 62.80596 -17.82572 34052 ft 401 kts 279°
2026-04-29 10:49 62.82736 -17.93815 34050 ft 400 kts 279°
2026-04-29 10:50 62.84860 -18.05068 34043 ft 400 kts 279°
2026-04-29 10:50 62.86970 -18.16336 34044 ft 400 kts 279°
2026-04-29 10:50 62.88017 -18.21961 34155 ft 399 kts 278°
2026-04-29 10:51 62.89062 -18.27548 34070 ft 393 kts 278°
2026-04-29 10:51 62.91113 -18.38559 34047 ft 389 kts 277°
2026-04-29 10:52 62.93120 -18.49494 34046 ft 389 kts 277°
2026-04-29 10:52 62.95149 -18.60600 34036 ft 389 kts 277°
2026-04-29 10:53 62.97154 -18.71578 34036 ft 390 kts 277°
2026-04-29 10:53 62.98345 -18.77117 34032 ft 405 kts 286°
2026-04-29 10:53 62.99938 -18.82264 34026 ft 416 kts 290°
2026-04-29 10:54 63.03349 -18.92566 34023 ft 416 kts 291°
2026-04-29 10:54 63.06752 -19.02890 34023 ft 416 kts 290°
2026-04-29 10:55 63.10158 -19.13342 34048 ft 417 kts 290°
2026-04-29 10:55 63.13508 -19.23707 34057 ft 420 kts 290°
2026-04-29 10:56 63.16907 -19.34249 34028 ft 421 kts 290°
2026-04-29 10:56 63.20311 -19.44829 34017 ft 422 kts 290°
2026-04-29 10:57 63.23709 -19.55444 34016 ft 422 kts 290°
2026-04-29 10:57 63.27109 -19.66140 32831 ft 430 kts 289°
2026-04-29 10:57 63.28837 -19.71622 31822 ft 435 kts 289°
2026-04-29 10:58 63.30576 -19.77103 31260 ft 430 kts 289°
2026-04-29 10:58 63.32298 -19.82503 30683 ft 425 kts 289°
2026-04-29 10:58 63.33994 -19.87853 30099 ft 421 kts 288°
2026-04-29 10:58 63.35666 -19.93154 29466 ft 416 kts 288°
2026-04-29 10:59 63.37309 -19.98376 28911 ft 409 kts 288°
2026-04-29 10:59 63.38928 -20.03544 28370 ft 404 kts 288°
2026-04-29 10:59 63.40521 -20.08649 27832 ft 398 kts 288°
2026-04-29 10:59 63.42092 -20.13694 27308 ft 393 kts 288°
2026-04-29 11:00 63.43642 -20.18682 26783 ft 388 kts 288°
2026-04-29 11:00 63.44659 -20.21959 26445 ft 385 kts 288°
2026-04-29 11:00 63.46173 -20.26859 25944 ft 381 kts 288°
2026-04-29 11:00 63.47668 -20.31708 25446 ft 377 kts 288°
2026-04-29 11:01 63.49145 -20.36514 24981 ft 373 kts 288°
2026-04-29 11:01 63.50607 -20.41285 24500 ft 370 kts 288°
2026-04-29 11:01 63.52054 -20.46016 24097 ft 366 kts 288°
2026-04-29 11:01 63.53485 -20.50703 23606 ft 364 kts 288°
2026-04-29 11:02 63.54929 -20.55442 23087 ft 360 kts 288°
2026-04-29 11:02 63.56203 -20.60114 22665 ft 342 kts 281°
2026-04-29 11:02 63.57258 -20.64836 22267 ft 336 kts 281°
2026-04-29 11:02 63.58289 -20.69429 21815 ft 335 kts 282°
2026-04-29 11:03 63.59566 -20.74005 21002 ft 352 kts 289°
2026-04-29 11:03 63.60954 -20.78529 20550 ft 351 kts 290°
2026-04-29 11:03 63.62366 -20.82976 20122 ft 348 kts 291°
2026-04-29 11:03 63.63779 -20.87380 19697 ft 346 kts 291°
2026-04-29 11:04 63.65175 -20.91756 19256 ft 343 kts 291°
2026-04-29 11:04 63.66554 -20.96120 18829 ft 341 kts 291°
2026-04-29 11:04 63.67915 -21.00475 18385 ft 339 kts 291°
2026-04-29 11:04 63.69260 -21.04825 17944 ft 337 kts 291°
2026-04-29 11:05 63.70586 -21.09114 17582 ft 331 kts 291°
2026-04-29 11:05 63.71897 -21.13359 17162 ft 328 kts 291°
2026-04-29 11:05 63.73191 -21.17568 16744 ft 326 kts 291°
2026-04-29 11:05 63.74475 -21.21764 16375 ft 324 kts 291°
2026-04-29 11:06 63.75754 -21.25961 15912 ft 324 kts 292°
2026-04-29 11:06 63.77029 -21.30147 15486 ft 323 kts 292°
2026-04-29 11:06 63.78300 -21.34324 15072 ft 321 kts 292°
2026-04-29 11:06 63.79566 -21.38481 14660 ft 320 kts 292°
2026-04-29 11:07 63.80824 -21.42619 14246 ft 319 kts 292°
2026-04-29 11:07 63.82082 -21.46758 13837 ft 319 kts 292°
2026-04-29 11:07 63.83336 -21.50900 13379 ft 318 kts 292°
2026-04-29 11:07 63.84582 -21.55032 12951 ft 317 kts 293°
2026-04-29 11:08 63.85824 -21.59150 12521 ft 316 kts 293°
2026-04-29 11:08 63.87063 -21.63253 12087 ft 315 kts 293°
2026-04-29 11:08 63.88311 -21.67405 11653 ft 314 kts 293°
2026-04-29 11:08 63.89536 -21.71495 11218 ft 313 kts 294°
2026-04-29 11:09 63.90754 -21.75568 10773 ft 312 kts 294°
2026-04-29 11:09 63.91976 -21.79629 10444 ft 309 kts 295°
2026-04-29 11:09 63.93235 -21.83495 10318 ft 300 kts 297°
2026-04-29 11:09 63.94494 -21.87133 10048 ft 288 kts 298°
2026-04-29 11:10 63.95734 -21.90669 9851 ft 283 kts 297°
2026-04-29 11:10 63.96951 -21.94160 9752 ft 281 kts 297°
2026-04-29 11:10 63.98156 -21.97658 9407 ft 280 kts 297°
2026-04-29 11:10 63.99354 -22.01158 8964 ft 280 kts 298°
2026-04-29 11:11 64.00549 -22.04664 8535 ft 280 kts 298°
2026-04-29 11:11 64.01736 -22.08159 8103 ft 279 kts 298°
2026-04-29 11:11 64.02920 -22.11645 7666 ft 274 kts 299°
2026-04-29 11:11 64.04069 -22.15008 7253 ft 263 kts 299°
2026-04-29 11:12 64.05174 -22.18246 6851 ft 254 kts 299°
2026-04-29 11:12 64.06242 -22.21389 6467 ft 249 kts 299°
2026-04-29 11:12 64.07302 -22.24537 6053 ft 250 kts 299°
2026-04-29 11:12 64.08359 -22.27690 5655 ft 250 kts 299°
2026-04-29 11:13 64.09473 -22.30774 5267 ft 255 kts 309°
2026-04-29 11:13 64.10876 -22.33331 4836 ft 258 kts 316°
2026-04-29 11:13 64.12290 -22.35744 4531 ft 246 kts 316°
2026-04-29 11:13 64.13633 -22.38025 4477 ft 235 kts 316°
2026-04-29 11:14 64.14810 -22.40420 4379 ft 215 kts 295°
2026-04-29 11:14 64.15292 -22.43383 4309 ft 186 kts 266°
2026-04-29 11:14 64.15130 -22.46161 3949 ft 174 kts 242°
2026-04-29 11:14 64.14492 -22.48504 3450 ft 175 kts 230°
2026-04-29 11:15 64.13780 -22.50760 2966 ft 173 kts 231°
2026-04-29 11:15 64.13094 -22.52948 2732 ft 164 kts 230°
2026-04-29 11:15 64.12467 -22.54963 2639 ft 147 kts 231°
2026-04-29 11:15 64.11893 -22.56799 2593 ft 138 kts 230°
2026-04-29 11:16 64.11320 -22.58516 2535 ft 134 kts 223°
2026-04-29 11:16 64.10582 -22.59786 2469 ft 133 kts 207°
2026-04-29 11:16 64.09694 -22.60371 2326 ft 134 kts 185°
2026-04-29 11:16 64.08769 -22.60411 2165 ft 132 kts 188°
2026-04-29 11:17 64.07891 -22.60467 1973 ft 122 kts 187°
2026-04-29 11:17 64.07059 -22.60498 1810 ft 119 kts 187°
2026-04-29 11:17 64.06229 -22.60516 1648 ft 119 kts 187°
2026-04-29 11:17 64.05398 -22.60527 1488 ft 121 kts 187°
2026-04-29 11:18 64.04525 -22.60536 1321 ft 129 kts 186°
2026-04-29 11:18 64.03628 -22.60539 1125 ft 129 kts 186°
2026-04-29 11:18 64.02729 -22.60540 930 ft 130 kts 185°
2026-04-29 11:18 64.01826 -22.60541 745 ft 130 kts 184°
2026-04-29 11:19 64.00915 -22.60541 566 ft 129 kts 186°
2026-04-29 11:19 64.00022 -22.60548 370 ft 129 kts 187°
2026-04-29 11:19 63.99119 -22.60553 227 ft 128 kts 185°
2026-04-29 11:19 63.98348 -22.60576 181 ft 81 kts 181°
2026-04-29 11:20 63.98123 -22.60574 179 ft 7 kts 213°
2026-04-29 11:20 63.98128 -22.60622 180 ft 5 kts 298°
2026-04-29 11:20 63.98189 -22.60719 180 ft 10 kts 335°
2026-04-29 11:20 63.98245 -22.60775 180 ft 9 kts 333°
2026-04-29 11:21 63.98299 -22.60849 180 ft 9 kts 328°
2026-04-29 11:21 63.98357 -22.60929 180 ft 10 kts 334°
2026-04-29 11:21 63.98428 -22.60944 179 ft 11 kts 360°
2026-04-29 11:21 63.98506 -22.60945 182 ft 12 kts 360°
2026-04-29 11:22 63.98588 -22.60945 183 ft 11 kts 359°
2026-04-29 11:22 63.98657 -22.60947 184 ft 10 kts
2026-04-29 11:22 63.98744 -22.60951 183 ft 13 kts 359°
2026-04-29 11:22 63.98829 -22.60952 183 ft 12 kts
2026-04-29 11:23 63.98886 -22.60948 183 ft 9 kts
2026-04-29 11:23 63.98950 -22.60945 183 ft 9 kts
2026-04-29 11:23 63.99023 -22.60943 183 ft 11 kts 359°
2026-04-29 11:23 63.99107 -22.60947 183 ft 13 kts 359°
2026-04-29 11:24 63.99173 -22.61028 183 ft 10 kts 285°
2026-04-29 11:24 63.99174 -22.61202 183 ft 12 kts 270°
2026-04-29 11:24 63.99174 -22.61404 184 ft 14 kts 269°
2026-04-29 11:24 63.99172 -22.61630 184 ft 15 kts 269°
2026-04-29 11:25 63.99171 -22.61879 184 ft 16 kts 270°
2026-04-29 11:25 63.99250 -22.62001 184 ft 16 kts
2026-04-29 11:25 63.99350 -22.62002 184 ft 13 kts 357°
2026-04-29 11:25 63.99416 -22.62071 184 ft 8 kts 287°
2026-04-29 11:26 63.99383 -22.62214 183 ft 0 kts 239°